Content
SEND FEEDBACK

Daily
Averages
Monthly
Summary
Mexico

CANCUN, QUINTANA ROO


Home > North America > Mexico > Quintana Roo
Elevation: 9 meters     Latitude: 21 09N     Longitude: 086 49W

WEATHER
 
SELECT A DAY
Number of Records: 163,723;   Date Range: 1/1/95 - 7/28/14
 
SHARE

PRINT THIS DATA

[ ← Previous Day ]
WEATHER ALMANAC - 14 FEBRUARY, 2013
[ Next Day → ]
[ °F ]   °C
Weather ElementAverageHighLow
Temperature26.9 °C30 °C (11:40 am)25 °C (2:44 am)
Dewpoint21.9 °C23 °C (1:42 am)21 °C (9:48 am)
Humidity74.7 %83 % (1:42 am)58 % (11:40 am)
Barometer1012.9 hPa1014.9 hPa (9:48 am)1011.9 hPa (2:44 am)
Wind Speed14.8 km/h27.8 km/h (10:41 am)
Wind Gust38.9 km/h (2:45 pm)
Weather ElementAverage
Visibility11.3 km
Wind DirectionSSE (157 °)

Weather ElementTotal
Precipitation---
Cooling Degree Days9.2 (Base 18.3)
Growing Degree Days17.5 (Base 10)
Averaged from 23 records on 14 February, 2013
WEATHER CONDITIONS BREAKOUT
WIND DIRECTION BREAKOUT
WEATHER BY HOUR - 14 FEBRUARY, 2013
[ °F ]   °C
Local TimeTemperatureDewpointHumidityBarometerVisibilityWind DirectionWind SpeedGust SpeedPrecipitationEventsConditions
1:42 AM26 °C23 °C83 %1012.2 hPa11.3 kmSE (140°)16.7 km/hScattered Clouds
2:44 AM25 °C22 °C83 %1011.9 hPa11.3 kmSSE (150°)13 km/hScattered Clouds
3:45 AM25 °C22 °C83 %1011.9 hPa11.3 kmSE (140°)9.3 km/hScattered Clouds
4:40 AM25 °C22 °C83 %1011.9 hPa11.3 kmSSE (150°)13 km/hScattered Clouds
5:43 AM25 °C22 °C83 %1012.2 hPa11.3 kmSSE (150°)14.8 km/hScattered Clouds
6:46 AM25 °C22 °C83 %1013.2 hPa11.3 kmSouth (180°)7.4 km/hScattered Clouds
7:41 AM26 °C23 °C83 %1014.2 hPa11.3 kmSSE (160°)13 km/hScattered Clouds
8:43 AM27 °C23 °C79 %1014.6 hPa11.3 kmSE (140°)9.3 km/hScattered Clouds
9:48 AM28 °C21 °C66 %1014.9 hPa11.3 kmSouth (170°)11.1 km/hScattered Clouds
10:41 AM29 °C21 °C62 %1014.6 hPa11.3 kmSouth (170°)27.8 km/hScattered Clouds
11:40 AM30 °C21 °C58 %1014.2 hPa11.3 kmSSE (160°)24.1 km/hScattered Clouds
12:43 PM30 °C21 °C58 %1012.9 hPa11.3 kmSouth (170°)24.1 km/hScattered Clouds
1:41 PM30 °C22 °C62 %1012.2 hPa11.3 kmSSE (160°)18.5 km/hScattered Clouds
2:45 PM30 °C21 °C58 %1012.2 hPa11.3 kmSouth (180°)20.4 km/h38.9 km/hScattered Clouds
3:42 PM29 °C23 °C70 %1011.9 hPa11.3 kmSSE (160°)22.2 km/hScattered Clouds
4:44 PM28 °C22 °C70 %1011.9 hPa11.3 kmSSE (160°)25.9 km/hPartly Cloudy
5:49 PM27 °C23 °C79 %1011.9 hPa11.3 kmSSE (160°)18.5 km/hScattered Clouds
6:44 PM26 °C23 °C83 %1012.2 hPa11.3 kmSSE (150°)16.7 km/hScattered Clouds
7:45 PM26 °C21 °C74 %1012.9 hPa11.3 kmSouth (170°)11.1 km/hMostly Cloudy
8:46 PM26 °C21 °C74 %1013.5 hPa11.3 kmWest (270°)3.7 km/hMostly Cloudy
9:48 PM25 °C21 °C78 %1013.5 hPa11.3 kmCalmMostly Cloudy
10:47 PM25 °C22 °C83 %1013.5 hPa11.3 kmSSE (160°)9.3 km/hMostly Cloudy
11:46 PM25 °C22 °C83 %1012.9 hPa11.3 kmSSE (160°)9.3 km/hMostly Cloudy
Hourly data recorded from MMUN, located 0 kilometers away from Cancun, Quintana Roo







STORIES FROM OUR PARTNERS